• Join FlightAware (Why Join?)
  • Login
  • US Flag GB Flag 
12:56 EST


 

Airport Tracker/Info


-or-


 

Live Flight TrackerFlight Track Log ✈ CTL15 ✈ 26-Apr-2013 ✈ KMGY - KBKL

Flight Track Log - Related Links

Times and Time Zones

All times are in EDT time to prevent confusion due to time zone crossing. See the CTL15 flight status page for this flight to view local times or setup timezone preferences in your user account.

Time Position Orientation Groundspeed Altitude Reporting Facility
EDT Latitude Longitude Course Direction KTS MPH feet Rate Location/Type
20:34 39.5814 -84.1994 45° Northeast 130 150 2,000  Level Indianapolis Center
20:35 39.6094 -84.1625 45° Northeast 161 185 2,700 608 Climbing Indianapolis Center
20:36 39.6175 -84.1511 47° Northeast 156 180 2,800 545 Climbing Indianapolis Center
20:36 39.6425 -84.1156 48° Northeast 170 196 3,300 581 Climbing Indianapolis Center
20:37 39.6486 -84.1047 54° Northeast 162 186 3,400 436 Climbing Indianapolis Center
20:37 39.6733 -84.0706 47° Northeast 174 200 3,700 590 Climbing Indianapolis Center
20:38 39.6881 -84.0503 47° Northeast 170 196 4,000 537 Climbing Indianapolis Center
20:38 39.7108 -84.0186 47° Northeast 174 200 4,300 484 Climbing Indianapolis Center
20:39 39.7200 -84.0025 54° Northeast 173 199 4,500 500 Climbing Indianapolis Center
20:39 39.7417 -83.9711 48° Northeast 170 196 4,800 393 Climbing Indianapolis Center
20:40 39.7517 -83.9556 50° Northeast 172 198 4,900 393 Climbing Indianapolis Center
20:40 39.7725 -83.9261 47° Northeast 168 193 5,200 484 Climbing Indianapolis Center
20:41 39.7836 -83.9108 47° Northeast 170 196 5,400 492 Climbing Indianapolis Center
20:41 39.8050 -83.8842 44° Northeast 162 186 5,700 492 Climbing Indianapolis Center
20:42 39.8161 -83.8697 45° Northeast 166 191 5,900 492 Climbing Indianapolis Center
20:43 39.8372 -83.8447 42° Northeast 159 183 6,200 484 Climbing Indianapolis Center
20:43 39.8481 -83.8294 47° Northeast 161 185 6,400 492 Climbing Indianapolis Center
20:44 39.8697 -83.8028 43° Northeast 158 182 6,700 393 Climbing Indianapolis Center
20:44 39.8808 -83.7900 41° Northeast 159 183 6,800 250 Climbing Indianapolis Center
20:45 39.9092 -83.7533 45° Northeast 163 188 7,000 117 Climbing Indianapolis Center
20:46 39.9414 -83.7139 43° Northeast 174 200 7,000  Level Indianapolis Center
20:46 39.9492 -83.7031 47° Northeast 168 193 7,000  Level Indianapolis Center
20:47 39.9714 -83.6742 45° Northeast 176 203 7,000  Level Indianapolis Center
20:47 39.9856 -83.6583 41° Northeast 173 199 7,000  Level Indianapolis Center
20:48 40.0086 -83.6269 46° Northeast 175 201 7,000  Level Indianapolis Center
20:48 40.0197 -83.6114 47° Northeast 175 201 7,000 109 Level Indianapolis Center
20:48 40.0386 -83.5869 45° Northeast 177 204 7,100 98 Climbing Indianapolis Center
20:49 40.0544 -83.5644 47° Northeast 176 203 7,100  Level Indianapolis Center
20:49 40.0714 -83.5394 48° Northeast 174 200 7,100 -97 Level Indianapolis Center
20:50 40.0867 -83.5164 49° Northeast 175 201 7,000  Descending Indianapolis Center
20:51 40.1067 -83.4864 49° Northeast 175 201 7,100  Climbing Indianapolis Center
20:51 40.1200 -83.4692 45° Northeast 175 201 7,000 -98 Descending Indianapolis Center
20:52 40.1433 -83.4444 39° Northeast 173 199 7,000 97 Level Indianapolis Center
20:52 40.1569 -83.4261 46° Northeast 175 201 7,100  Climbing Indianapolis Center
20:53 40.1778 -83.3997 44° Northeast 174 200 7,000 -98 Descending Indianapolis Center
20:53 40.1931 -83.3831 40° Northeast 175 201 7,000  Level Indianapolis Center
20:54 40.2144 -83.3575 42° Northeast 174 200 7,000  Level Indianapolis Center
20:54 40.2289 -83.3400 43° Northeast 173 199 7,000  Level Indianapolis Center
20:55 40.2511 -83.3128 43° Northeast 174 200 7,000  Level Indianapolis Center
20:55 40.2711 -83.2872 44° Northeast 177 204 7,000  Level Indianapolis Center
20:56 40.3064 -83.2433 43° Northeast 175 201 7,000 49 Level Indianapolis Center
20:57 40.3436 -83.1978 43° Northeast 179 206 7,100  Climbing Indianapolis Center
20:58 40.3778 -83.1503 47° Northeast 178 205 7,000  Descending Indianapolis Center
20:59 40.4142 -83.1053 43° Northeast 177 204 7,100  Climbing Indianapolis Center
21:00 40.4506 -83.0628 42° Northeast 174 200 7,000 -49 Descending Indianapolis Center
21:01 40.4858 -83.0194 43° Northeast 172 198 7,000 -146 Level Indianapolis Center
21:02 40.5203 -82.9683 48° Northeast 174 200 6,700 -341 Descending Indianapolis Center
21:03 40.5486 -82.9128 56° Northeast 179 206 6,300 -492 Descending Indianapolis Center
21:04 40.5789 -82.8572 54° Northeast 184 212 5,700 -537 Descending Indianapolis Center
21:05 40.6089 -82.8025 54° Northeast 183 211 5,200 -341 Descending Indianapolis Center
21:06 40.6386 -82.7483 54° Northeast 181 208 5,000 -98 Descending Indianapolis Center
21:07 40.6672 -82.6944 55° Northeast 178 205 5,000  Level Indianapolis Center
21:08 40.6936 -82.6383 58° Northeast 178 205 5,000 49 Level Indianapolis Center
21:09 40.7200 -82.5847 57° Northeast 174 200 5,100 98 Climbing Indianapolis Center